{"data":{"norad_id":52679,"epoch":"2026-09-20T04:00:03.000096Z","epoch_age_seconds":95222,"freshness":"FRESH","line1":"1 52679U 22053Z   26263.16670139  .00080334  00000+0  28031-2 0  9996","line2":"2 52679  53.1590 348.7482 0001046  70.9625  94.5898 15.28924826  5847","mean_motion":15.28924826,"eccentricity":0.0001046,"inclination_deg":53.159,"raan_deg":348.7482,"arg_perigee_deg":70.9625,"mean_anomaly_deg":94.5898,"bstar":0.0028031,"rev_number":584,"period_min":94.183832685048,"perigee_km":478.30789600089,"apogee_km":479.74241432375,"semimajor_km":6857.1621551623,"source":"CELESTRAK","updated_at":"2026-09-20T09:00:40.104634Z"}}